BCS136 EDDP-LIMC

Flight info

Callsign BCS136
Flight time 1h 16m
Altitude 32000
Route NEVKO1K NEVKO Q243 BAMKI Z94 KOMIB DCT TEDGO DCT SONOM DCT GERSA DCT SOSON DCT DEGAD Z424 RIXUV
Aircraft B738/M-SDE2E3FGHIRWXY/LB1

Departure

Time 2026-05-05 10:03
Airport Leipzig/Halle Airport (EDDP)

Arrival

Time 2026-05-05 11:20
Airport Milan Malpensa International Airport (LIMC)
Time Latitude Longitude Altitude Speed Heading
2026-05-05 09:05 51.40892 12.24496 467 ft 0 kts 265°
2026-05-05 09:07 51.40891 12.24497 468 ft 0 kts 232°
2026-05-05 09:07 51.40892 12.24496 468 ft 0 kts 262°
2026-05-05 09:51 51.40893 12.24505 467 ft 3 kts 267°
2026-05-05 09:51 51.40893 12.24544 467 ft 3 kts 272°
2026-05-05 09:51 51.40891 12.24581 466 ft 3 kts 285°
2026-05-05 09:51 51.40882 12.24613 465 ft 4 kts 324°
2026-05-05 09:52 51.40875 12.24621 466 ft 4 kts 356°
2026-05-05 09:52 51.40898 12.24619 467 ft 4 kts 356°
2026-05-05 09:52 51.40922 12.24616 468 ft 4 kts 356°
2026-05-05 09:52 51.40934 12.24615 468 ft 1 kts 356°
2026-05-05 09:58 51.40944 12.24614 469 ft 4 kts 356°
2026-05-05 09:59 51.40991 12.24610 471 ft 9 kts 355°
2026-05-05 09:59 51.41070 12.24604 473 ft 13 kts 11°
2026-05-05 09:59 51.41097 12.24711 474 ft 12 kts 89°
2026-05-05 09:59 51.41108 12.24862 476 ft 16 kts 86°
2026-05-05 10:00 51.41117 12.25065 473 ft 20 kts 86°
2026-05-05 10:00 51.41127 12.25277 479 ft 10 kts 85°
2026-05-05 10:00 51.41132 12.25382 473 ft 8 kts 85°
2026-05-05 10:00 51.41136 12.25467 474 ft 8 kts 86°
2026-05-05 10:01 51.41140 12.25560 479 ft 10 kts 81°
2026-05-05 10:01 51.41200 12.25624 478 ft 12 kts
2026-05-05 10:01 51.41282 12.25617 472 ft 11 kts 356°
2026-05-05 10:01 51.41357 12.25583 474 ft 12 kts 318°
2026-05-05 10:02 51.41394 12.25444 474 ft 15 kts 272°
2026-05-05 10:02 51.41385 12.25241 471 ft 27 kts 265°
2026-05-05 10:02 51.41357 12.24597 474 ft 94 kts 265°
2026-05-05 10:02 51.41298 12.23187 481 ft 158 kts 269°
2026-05-05 10:03 51.41266 12.21297 968 ft 178 kts 271°
2026-05-05 10:03 51.41252 12.19252 1782 ft 186 kts 266°
2026-05-05 10:03 51.41129 12.17172 2663 ft 190 kts 264°
2026-05-05 10:03 51.40989 12.14980 3369 ft 204 kts 264°
2026-05-05 10:04 51.40846 12.12659 3897 ft 218 kts 264°
2026-05-05 10:04 51.40696 12.10107 4165 ft 240 kts 265°
2026-05-05 10:04 51.40549 12.07441 4789 ft 245 kts 265°
2026-05-05 10:04 51.40396 12.04608 5373 ft 260 kts 265°
2026-05-05 10:05 51.40242 12.01717 6142 ft 266 kts 264°
2026-05-05 10:05 51.40085 11.98767 7031 ft 266 kts 264°
2026-05-05 10:05 51.39877 11.95803 7879 ft 269 kts 255°
2026-05-05 10:05 51.39072 11.93118 8710 ft 270 kts 232°
2026-05-05 10:06 51.37681 11.91107 9587 ft 272 kts 213°
2026-05-05 10:06 51.36039 11.89558 10306 ft 279 kts 211°
2026-05-05 10:06 51.34280 11.87971 10533 ft 303 kts 210°
2026-05-05 10:06 51.32375 11.86252 10711 ft 326 kts 210°
2026-05-05 10:07 51.30338 11.84392 10897 ft 348 kts 211°
2026-05-05 10:07 51.28181 11.82408 11135 ft 366 kts 211°
2026-05-05 10:07 51.25951 11.80352 11683 ft 373 kts 211°
2026-05-05 10:07 51.23763 11.78094 12376 ft 375 kts 217°
2026-05-05 10:08 51.21692 11.75547 13078 ft 377 kts 219°
2026-05-05 10:08 51.19644 11.72896 13748 ft 381 kts 219°
2026-05-05 10:08 51.17582 11.70217 14345 ft 384 kts 219°
2026-05-05 10:08 51.15499 11.67539 14977 ft 386 kts 219°
2026-05-05 10:09 51.13399 11.64872 15608 ft 387 kts 219°
2026-05-05 10:09 51.11275 11.62200 16214 ft 390 kts 219°
2026-05-05 10:09 51.09134 11.59526 16791 ft 393 kts 219°
2026-05-05 10:09 51.06974 11.56839 17359 ft 395 kts 219°
2026-05-05 10:10 51.04799 11.54140 17925 ft 398 kts 219°
2026-05-05 10:10 51.02606 11.51423 18437 ft 401 kts 219°
2026-05-05 10:10 51.00418 11.48716 18881 ft 404 kts 219°
2026-05-05 10:10 50.98189 11.45960 19285 ft 408 kts 218°
2026-05-05 10:11 50.95940 11.43183 19704 ft 412 kts 218°
2026-05-05 10:11 50.94729 11.41689 19944 ft 413 kts 218°
2026-05-05 10:11 50.92455 11.38885 20400 ft 416 kts 218°
2026-05-05 10:11 50.90160 11.36059 20830 ft 419 kts 218°
2026-05-05 10:12 50.87846 11.33215 21252 ft 422 kts 218°
2026-05-05 10:12 50.85560 11.30285 21642 ft 424 kts 224°
2026-05-05 10:12 50.83645 11.26719 22027 ft 427 kts 233°
2026-05-05 10:12 50.81889 11.22923 22435 ft 429 kts 234°
2026-05-05 10:13 50.80111 11.19106 22818 ft 432 kts 233°
2026-05-05 10:13 50.78291 11.15282 23086 ft 437 kts 232°
2026-05-05 10:13 50.76435 11.11454 23358 ft 442 kts 232°
2026-05-05 10:13 50.74551 11.07604 23694 ft 444 kts 232°
2026-05-05 10:14 50.72623 11.03789 24063 ft 444 kts 228°
2026-05-05 10:14 50.70421 11.00391 24418 ft 445 kts 220°
2026-05-05 10:14 50.67902 10.97535 24782 ft 446 kts 214°
2026-05-05 10:14 50.65333 10.94801 25104 ft 447 kts 215°
2026-05-05 10:15 50.62756 10.92034 25404 ft 449 kts 215°
2026-05-05 10:15 50.60183 10.89241 25715 ft 450 kts 215°
2026-05-05 10:15 50.57609 10.86423 26030 ft 451 kts 216°
2026-05-05 10:15 50.55030 10.83598 26371 ft 451 kts 215°
2026-05-05 10:16 50.52472 10.80800 26831 ft 448 kts 215°
2026-05-05 10:16 50.51310 10.79537 27062 ft 447 kts 215°
2026-05-05 10:16 50.48760 10.76779 27581 ft 443 kts 215°
2026-05-05 10:16 50.46260 10.74081 28052 ft 441 kts 215°
2026-05-05 10:17 50.43742 10.71365 28482 ft 439 kts 215°
2026-05-05 10:17 50.41236 10.68652 28935 ft 437 kts 215°
2026-05-05 10:17 50.38741 10.65940 29372 ft 436 kts 216°
2026-05-05 10:17 50.36248 10.63231 29712 ft 436 kts 215°
2026-05-05 10:18 50.33751 10.60525 30030 ft 436 kts 215°
2026-05-05 10:18 50.31246 10.57836 30452 ft 434 kts 215°
2026-05-05 10:18 50.28765 10.55189 30907 ft 430 kts 215°
2026-05-05 10:18 50.26302 10.52563 31352 ft 426 kts 215°
2026-05-05 10:19 50.23858 10.49957 31708 ft 425 kts 216°
2026-05-05 10:19 50.21527 10.47141 31847 ft 426 kts 224°
2026-05-05 10:19 50.17399 10.40462 31850 ft 427 kts 226°
2026-05-05 10:20 50.13299 10.33845 31852 ft 422 kts 226°
2026-05-05 10:20 50.09177 10.27329 31859 ft 421 kts 223°
2026-05-05 10:21 50.05481 10.23078 31857 ft 422 kts 211°
2026-05-05 10:21 50.00150 10.19205 31851 ft 423 kts 206°
2026-05-05 10:22 49.94792 10.15553 31847 ft 424 kts 205°
2026-05-05 10:22 49.89400 10.11850 31851 ft 424 kts 205°
2026-05-05 10:23 49.83971 10.08103 31852 ft 425 kts 206°
2026-05-05 10:23 49.78606 10.04398 31853 ft 425 kts 206°
2026-05-05 10:24 49.73183 10.00661 31843 ft 426 kts 205°
2026-05-05 10:24 49.67760 9.96935 31863 ft 427 kts 205°
2026-05-05 10:25 49.62322 9.93207 31848 ft 428 kts 205°
2026-05-05 10:25 49.56876 9.89483 31860 ft 428 kts 205°
2026-05-05 10:26 49.52606 9.86570 31852 ft 428 kts 205°
2026-05-05 10:26 49.47186 9.82881 31855 ft 427 kts 205°
2026-05-05 10:27 49.41750 9.79189 31857 ft 426 kts 205°
2026-05-05 10:27 49.36333 9.75519 31857 ft 426 kts 205°
2026-05-05 10:28 49.30907 9.71852 31859 ft 424 kts 204°
2026-05-05 10:28 49.25506 9.68211 31847 ft 423 kts 204°
2026-05-05 10:29 49.20122 9.64589 31858 ft 422 kts 204°
2026-05-05 10:29 49.14741 9.60979 31855 ft 422 kts 204°
2026-05-05 10:30 49.09375 9.57386 31859 ft 421 kts 204°
2026-05-05 10:30 49.04006 9.53800 31855 ft 421 kts 204°
2026-05-05 10:31 48.99931 9.51085 31856 ft 420 kts 204°
2026-05-05 10:31 48.94569 9.47518 31853 ft 421 kts 204°
2026-05-05 10:32 48.89217 9.43967 31851 ft 420 kts 203°
2026-05-05 10:32 48.83859 9.40420 31841 ft 420 kts 203°
2026-05-05 10:33 48.78501 9.36882 31847 ft 420 kts 203°
2026-05-05 10:33 48.73138 9.33347 31871 ft 420 kts 203°
2026-05-05 10:34 48.67760 9.29810 31858 ft 420 kts 202°
2026-05-05 10:34 48.62394 9.26296 31857 ft 420 kts 202°
2026-05-05 10:35 48.56880 9.23558 31867 ft 419 kts 195°
2026-05-05 10:35 48.51264 9.21170 31848 ft 419 kts 195°
2026-05-05 10:36 48.46902 9.19303 31848 ft 419 kts 195°
2026-05-05 10:36 48.41303 9.16869 31851 ft 418 kts 196°
2026-05-05 10:37 48.35713 9.14421 31855 ft 418 kts 196°
2026-05-05 10:37 48.30149 9.11985 31935 ft 422 kts 196°
2026-05-05 10:38 48.27320 9.10749 32198 ft 423 kts 195°
2026-05-05 10:38 48.24503 9.09519 32503 ft 422 kts 195°
2026-05-05 10:38 48.21689 9.08293 32851 ft 420 kts 195°
2026-05-05 10:38 48.18872 9.07067 32850 ft 423 kts 195°
2026-05-05 10:39 48.13230 9.04615 32852 ft 420 kts 195°
2026-05-05 10:39 48.07641 9.02192 32855 ft 416 kts 195°
2026-05-05 10:40 48.03019 9.00192 32871 ft 415 kts 195°
2026-05-05 10:40 47.97459 8.97791 32873 ft 416 kts 195°
2026-05-05 10:41 47.93202 8.95957 32873 ft 417 kts 195°
2026-05-05 10:41 47.87818 8.93641 32872 ft 418 kts 195°
2026-05-05 10:42 47.79396 8.90028 32882 ft 420 kts 195°
2026-05-05 10:43 47.73846 8.87470 32884 ft 421 kts 197°
2026-05-05 10:43 47.68290 8.84667 32890 ft 422 kts 198°
2026-05-05 10:44 47.62739 8.81879 32898 ft 423 kts 197°
2026-05-05 10:44 47.57131 8.79102 32890 ft 425 kts 197°
2026-05-05 10:45 47.51516 8.76343 32887 ft 425 kts 197°
2026-05-05 10:45 47.45888 8.73586 32889 ft 426 kts 197°
2026-05-05 10:46 47.40250 8.70830 32891 ft 426 kts 197°
2026-05-05 10:46 47.36029 8.68770 32892 ft 426 kts 197°
2026-05-05 10:47 47.30378 8.66017 32880 ft 427 kts 197°
2026-05-05 10:47 47.24773 8.63293 32887 ft 427 kts 198°
2026-05-05 10:48 47.19096 8.60540 32894 ft 426 kts 198°
2026-05-05 10:48 47.13509 8.57836 32899 ft 425 kts 198°
2026-05-05 10:49 47.07905 8.55131 32910 ft 424 kts 197°
2026-05-05 10:49 47.02120 8.53623 32920 ft 424 kts 183°
2026-05-05 10:50 46.96198 8.54212 32924 ft 426 kts 175°
2026-05-05 10:50 46.90335 8.55128 32928 ft 427 kts 175°
2026-05-05 10:51 46.84409 8.56010 32937 ft 428 kts 176°
2026-05-05 10:51 46.80148 8.56624 32950 ft 428 kts 176°
2026-05-05 10:52 46.74215 8.57472 32780 ft 430 kts 176°
2026-05-05 10:52 46.71209 8.57900 32173 ft 432 kts 176°
2026-05-05 10:52 46.68217 8.58327 31466 ft 430 kts 175°
2026-05-05 10:52 46.65236 8.58754 30721 ft 430 kts 175°
2026-05-05 10:53 46.62253 8.59178 29953 ft 431 kts 175°
2026-05-05 10:53 46.59265 8.59603 29056 ft 432 kts 175°
2026-05-05 10:53 46.56301 8.60020 28200 ft 432 kts 175°
2026-05-05 10:53 46.53289 8.60442 27307 ft 434 kts 176°
2026-05-05 10:54 46.50297 8.60862 26696 ft 429 kts 176°
2026-05-05 10:54 46.47332 8.61206 26051 ft 425 kts 181°
2026-05-05 10:54 46.44407 8.60772 25429 ft 420 kts 193°
2026-05-05 10:54 46.41648 8.59633 24836 ft 416 kts 200°
2026-05-05 10:55 46.39007 8.57834 24204 ft 414 kts 211°
2026-05-05 10:55 46.36619 8.55616 23590 ft 412 kts 212°
2026-05-05 10:55 46.34181 8.53365 22869 ft 409 kts 211°
2026-05-05 10:55 46.31801 8.51215 22235 ft 405 kts 211°
2026-05-05 10:56 46.29330 8.49285 21585 ft 402 kts 201°
2026-05-05 10:56 46.27839 8.48576 21276 ft 399 kts 195°
2026-05-05 10:56 46.25111 8.47844 20652 ft 397 kts 187°
2026-05-05 10:56 46.22354 8.47808 20043 ft 397 kts 176°
2026-05-05 10:57 46.19619 8.48272 19463 ft 394 kts 175°
2026-05-05 10:57 46.16906 8.48722 18873 ft 392 kts 176°
2026-05-05 10:57 46.14196 8.49137 18250 ft 391 kts 176°
2026-05-05 10:57 46.11496 8.49604 17575 ft 391 kts 172°
2026-05-05 10:58 46.08877 8.50620 16961 ft 390 kts 162°
2026-05-05 10:58 46.06387 8.52005 16610 ft 382 kts 161°
2026-05-05 10:58 46.03953 8.53362 16461 ft 369 kts 162°
2026-05-05 10:58 46.01570 8.54671 16281 ft 358 kts 162°
2026-05-05 10:59 45.99280 8.55914 16162 ft 346 kts 162°
2026-05-05 10:59 45.97067 8.57105 16013 ft 338 kts 162°
2026-05-05 10:59 45.94886 8.58277 15874 ft 331 kts 162°
2026-05-05 10:59 45.92745 8.59424 15709 ft 325 kts 162°
2026-05-05 11:00 45.90648 8.60550 15582 ft 318 kts 162°
2026-05-05 11:00 45.88721 8.62084 15284 ft 320 kts 145°
2026-05-05 11:00 45.87012 8.64100 15006 ft 319 kts 144°
2026-05-05 11:00 45.85318 8.66110 14684 ft 319 kts 144°
2026-05-05 11:01 45.83593 8.68136 14335 ft 321 kts 144°
2026-05-05 11:01 45.82664 8.69218 14131 ft 322 kts 144°
2026-05-05 11:01 45.80915 8.71244 13776 ft 323 kts 144°
2026-05-05 11:01 45.79172 8.73253 13401 ft 322 kts 144°
2026-05-05 11:02 45.77426 8.75260 13043 ft 321 kts 144°
2026-05-05 11:02 45.75645 8.77175 12667 ft 320 kts 151°
2026-05-05 11:02 45.73701 8.78730 12310 ft 319 kts 155°
2026-05-05 11:02 45.71740 8.80156 11946 ft 319 kts 156°
2026-05-05 11:03 45.69750 8.81606 11599 ft 317 kts 155°
2026-05-05 11:03 45.67813 8.83053 11275 ft 316 kts 154°
2026-05-05 11:03 45.65887 8.84520 11091 ft 309 kts 154°
2026-05-05 11:03 45.64006 8.85962 10954 ft 301 kts 154°
2026-05-05 11:04 45.62204 8.87337 10810 ft 293 kts 156°
2026-05-05 11:04 45.60297 8.88236 10533 ft 288 kts 172°
2026-05-05 11:04 45.58290 8.88726 10272 ft 298 kts 172°
2026-05-05 11:04 45.56200 8.89239 9976 ft 313 kts 172°
2026-05-05 11:05 45.54048 8.89798 10006 ft 314 kts 171°
2026-05-05 11:05 45.51915 8.90371 9979 ft 306 kts 171°
2026-05-05 11:05 45.49851 8.90932 9899 ft 297 kts 171°
2026-05-05 11:05 45.47856 8.91476 9825 ft 288 kts 171°
2026-05-05 11:06 45.45917 8.92004 9745 ft 279 kts 171°
2026-05-05 11:06 45.44030 8.92517 9597 ft 272 kts 171°
2026-05-05 11:06 45.42178 8.93018 9231 ft 274 kts 171°
2026-05-05 11:06 45.40298 8.93528 8898 ft 277 kts 171°
2026-05-05 11:07 45.38392 8.94044 8597 ft 276 kts 171°
2026-05-05 11:07 45.36506 8.94556 8283 ft 275 kts 171°
2026-05-05 11:07 45.34632 8.95063 7983 ft 273 kts 171°
2026-05-05 11:07 45.32765 8.95568 7691 ft 272 kts 171°
2026-05-05 11:08 45.30911 8.96070 7372 ft 271 kts 171°
2026-05-05 11:08 45.29090 8.96565 7292 ft 261 kts 171°
2026-05-05 11:08 45.27364 8.97035 7189 ft 252 kts 171°
2026-05-05 11:08 45.25672 8.97494 7116 ft 242 kts 171°
2026-05-05 11:09 45.24043 8.97937 6966 ft 236 kts 171°
2026-05-05 11:09 45.22431 8.98373 6715 ft 235 kts 171°
2026-05-05 11:09 45.20824 8.98743 6492 ft 232 kts 182°
2026-05-05 11:09 45.19336 8.98059 6180 ft 229 kts 220°
2026-05-05 11:10 45.18407 8.96248 5915 ft 231 kts 247°
2026-05-05 11:10 45.18110 8.94027 5627 ft 231 kts 271°
2026-05-05 11:10 45.18463 8.91857 5464 ft 222 kts 288°
2026-05-05 11:10 45.19019 8.89854 5338 ft 218 kts 290°
2026-05-05 11:11 45.19601 8.87829 5262 ft 230 kts 291°
2026-05-05 11:11 45.20267 8.85733 5133 ft 236 kts 303°
2026-05-05 11:11 45.21518 8.84269 5010 ft 237 kts 337°
2026-05-05 11:11 45.23103 8.83673 4922 ft 235 kts 348°
2026-05-05 11:12 45.24719 8.83257 4831 ft 237 kts 351°
2026-05-05 11:12 45.26367 8.82838 4726 ft 242 kts 351°
2026-05-05 11:12 45.28029 8.82403 4618 ft 244 kts 350°
2026-05-05 11:12 45.29679 8.81968 4494 ft 242 kts 350°
2026-05-05 11:13 45.31323 8.81527 4379 ft 237 kts 350°
2026-05-05 11:13 45.32906 8.81099 4253 ft 224 kts 350°
2026-05-05 11:13 45.34396 8.80694 4112 ft 211 kts 350°
2026-05-05 11:13 45.35792 8.80313 4011 ft 199 kts 350°
2026-05-05 11:14 45.37145 8.79949 4036 ft 197 kts 352°
2026-05-05 11:14 45.38507 8.79670 4043 ft 197 kts 353°
2026-05-05 11:14 45.39861 8.79411 4014 ft 195 kts 353°
2026-05-05 11:14 45.41205 8.79152 4020 ft 195 kts 353°
2026-05-05 11:15 45.42554 8.78891 4009 ft 195 kts 353°
2026-05-05 11:15 45.43864 8.78623 3976 ft 190 kts 352°
2026-05-05 11:15 45.45124 8.78284 3999 ft 179 kts 352°
2026-05-05 11:15 45.46353 8.77944 3793 ft 181 kts 351°
2026-05-05 11:16 45.47591 8.77602 3601 ft 181 kts 351°
2026-05-05 11:16 45.48830 8.77262 3324 ft 179 kts 350°
2026-05-05 11:16 45.50053 8.76912 3077 ft 179 kts 351°
2026-05-05 11:16 45.51261 8.76571 2840 ft 175 kts 351°
2026-05-05 11:17 45.52452 8.76239 2604 ft 173 kts 352°
2026-05-05 11:17 45.53625 8.75915 2380 ft 171 kts 351°
2026-05-05 11:17 45.54780 8.75597 2163 ft 166 kts 352°
2026-05-05 11:17 45.55903 8.75288 1929 ft 162 kts 351°
2026-05-05 11:18 45.56998 8.74985 1703 ft 158 kts 351°
2026-05-05 11:18 45.58053 8.74692 1572 ft 146 kts 350°
2026-05-05 11:18 45.59001 8.74370 1457 ft 139 kts 347°
2026-05-05 11:18 45.59942 8.74136 1254 ft 136 kts 351°
2026-05-05 11:19 45.60871 8.73930 1003 ft 135 kts 348°
2026-05-05 11:19 45.61780 8.73677 816 ft 132 kts 348°
2026-05-05 11:19 45.62651 8.73428 746 ft 119 kts 359°
2026-05-05 11:19 45.63250 8.73289 743 ft 56 kts 349°
2026-05-05 11:20 45.63568 8.73187 746 ft 39 kts 336°
2026-05-05 11:20 45.63749 8.73024 747 ft 17 kts 317°
2026-05-05 11:20 45.63814 8.72917 750 ft 14 kts 303°
2026-05-05 11:20 45.63868 8.72803 750 ft 13 kts 304°
2026-05-05 11:21 45.63920 8.72695 747 ft 13 kts 304°
2026-05-05 11:21 45.63956 8.72586 751 ft 12 kts 275°
2026-05-05 11:21 45.63944 8.72462 751 ft 13 kts 258°
2026-05-05 11:21 45.63925 8.72329 750 ft 15 kts 258°
2026-05-05 11:22 45.63906 8.72173 744 ft 18 kts 266°
2026-05-05 11:22 45.63907 8.72008 745 ft 14 kts 268°
2026-05-05 11:22 45.63885 8.71881 748 ft 13 kts 235°
2026-05-05 11:22 45.63807 8.71825 748 ft 14 kts 181°
2026-05-05 11:23 45.63706 8.71852 747 ft 16 kts 169°
2026-05-05 11:23 45.63597 8.71881 748 ft 14 kts 167°
2026-05-05 11:23 45.63517 8.71903 747 ft 12 kts 169°
2026-05-05 11:23 45.63464 8.71917 749 ft 8 kts 170°
2026-05-05 11:24 45.63401 8.71934 749 ft 10 kts 168°
2026-05-05 11:24 45.63316 8.71958 747 ft 14 kts 169°
2026-05-05 11:24 45.63220 8.71985 749 ft 18 kts 169°
2026-05-05 11:24 45.63108 8.72015 751 ft 17 kts 169°
2026-05-05 11:25 45.62980 8.72051 747 ft 20 kts 169°
2026-05-05 11:25 45.62840 8.72090 747 ft 22 kts 169°
2026-05-05 11:25 45.62700 8.72128 749 ft 20 kts 169°
2026-05-05 11:25 45.62566 8.72165 747 ft 19 kts 169°
2026-05-05 11:26 45.62438 8.72200 751 ft 19 kts 169°
2026-05-05 11:26 45.62316 8.72234 751 ft 17 kts 169°
2026-05-05 11:26 45.62226 8.72228 747 ft 12 kts 228°
2026-05-05 11:26 45.62197 8.72123 750 ft 11 kts 251°
2026-05-05 11:27 45.62184 8.72041 748 ft 8 kts 259°
2026-05-05 11:27 45.62156 8.71977 752 ft 8 kts 204°
2026-05-05 11:27 45.62122 8.71977 752 ft 7 kts 174°
2026-05-05 11:27 45.62117 8.71978 752 ft 0 kts 173°
2026-05-05 11:28 45.62107 8.71980 748 ft 4 kts 170°
2026-05-05 11:28 45.62071 8.71985 752 ft 4 kts 167°
2026-05-05 11:28 45.62049 8.71993 748 ft 5 kts 165°
2026-05-05 11:28 45.62037 8.71992 752 ft 0 kts 200°
2026-05-05 11:29 45.62036 8.71987 748 ft 1 kts 237°
2026-05-05 11:29 45.62047 8.71971 748 ft 6 kts 315°
2026-05-05 11:29 45.62067 8.71901 748 ft 6 kts 263°
2026-05-05 11:29 45.62061 8.71865 751 ft 0 kts 258°
2026-05-05 11:30 45.62059 8.71852 750 ft 2 kts 258°
2026-05-05 11:30 45.62058 8.71845 752 ft 0 kts 258°